Regional Weather Roundup
Issued by NWS Midland/Odessa, TX

Skip options and go directly to product.
Home | Oldest Version | Previous Version | Current Version | All | Graphics & Text | Save Text | Print | Product List | Glossary On

Skip product version selection by date and time.   
299
ASUS44 KMAF 201810
RWRMAF
MIDLAND AREA WEATHER ROUNDUP
NATIONAL WEATHER SERVICE MIDLAND TX
100 PM CDT WED AUG 20 2014

...IN SOUTHWEST TEXAS AND SOUTHEAST NEW MEXICO...

CITY           SKY/WX    TMP DP  RH WIND       PRES   REMARKS
ALPINE         CLOUDY    78  60  53 SW9       30.15S
ANDREWS        FAIR      91  62  38 S15G22    29.97S
ARTESIA        SUNNY     90  54  29 SW13      29.94F
BIG SPRING     SUNNY     89  63  41 S17G24    29.99F
CARLSBAD       MOSUNNY   90  57  32 S8G18     29.93S
DRYDEN           N/A     93  65  39 SE7       29.95F
FORT STOCKTON  SUNNY     89  61  38 S6        29.98S
GUAD PASS      MOSUNNY   79  56  45 W30G40    30.11F
HOBBS          SUNNY     88  57  35 S16G22    29.98F
MARFA          CLOUDY    75  59  57 SW9       30.14S
MIDLAND AIRPK  SUNNY     90  62  39 S12       29.97F
MIDLAND INTL   SUNNY     90  64  42 S20       29.96F
ODESSA         SUNNY     88  63  43 SW15G24   29.97F
PECOS          SUNNY     91  56  30 SW9       29.93F
PRESIDIO       FAIR      84  63  49 CALM      30.00F
SEMINOLE       SUNNY     91  59  33 S12G22    29.97F
SNYDER         SUNNY     88  66  48 S17G24    29.97F
WINK           SUNNY     91  59  33 SW12G17   29.93F
$$
...OTHER STATIONS IN TEXAS...

CITY           SKY/WX    TMP DP  RH WIND       PRES   REMARKS
ABILENE        SUNNY     90  65  43 S21G31    29.97F
AMARILLO       SUNNY     90  62  39 S17G26    29.94F
AUSTIN         PTSUNNY   93  68  43 S9        29.97S
BROWNSVILLE    MOSUNNY   94  75  54 SE24G31   29.95S HX 105
CORPUS CHRISTI PTSUNNY   93  75  55 S20G31    29.95F HX 104
DALLAS FTW     MOSUNNY   93  69  45 S16       29.96F
DEL RIO        SUNNY     91  69  48 SE15      29.92F
EL PASO        MOSUNNY   82  57  42 NW7G17    30.02F
HOUSTON INT    PTSUNNY   94  75  54 S9        29.99F HX 105
LUBBOCK        MOSUNNY   90  64  42 S17       29.96F
SAN ANGELO     SUNNY     89  67  47 S16       29.97F
SAN ANTONIO    MOSUNNY   93  67  42 SE17G23   29.98F
WACO           SUNNY     93  68  43 S22       29.98F
WICHITA FALLS  NOT AVBL
$$
...OTHER LOCATIONS IN NEW MEXICO...

CITY           SKY/WX    TMP DP  RH WIND       PRES   REMARKS
ALAMAGORDO     MOSUNNY   81  55  41 NW5       30.04F
ALBUQUERQUE    MOSUNNY   79  52  38 NE8       30.11F
CANNON AFB     SUNNY     90  56  30 SW13G22   29.98F
CLOVIS           N/A     90  55  31 W14       29.99F
HOLLOMAN AFB   MOSUNNY   81  57  44 NE1       30.02F
ROSWELL        SUNNY     89  58  34 NE6       29.95F
RUIDOSO        PTSUNNY   68  54  60 CALM      30.20F
SANTA FE       MOSUNNY   74  50  42 VRB5      30.13F
TRUTH OR CONSE SUNNY     82  48  30 VRB7      30.08F
TUCUMCARI      SUNNY     94  49  21 SW17      29.92F
$$

USA.gov is the U.S. government's official web portal to all federal, state and local government web resources and services.